Location: Bussy-Saint-Georges
(48.8410°N, 2.7017°E)
Time: 18:17:17
(UTC+00:00)

Daily predictions for brighter satellites

Satellite Brightness Start Highest point End
(mag) Time Altitude Azimuth Time Altitude Azimuth Time Altitude Azimuth
CENTAUR R/B 4.0 17:16:37 10° W 17:22:26 33° NNW 17:29:16 10° NE
Cosmos 1727 Rocket 4.0 17:20:59 10° N 17:27:12 68° ENE 17:33:21 10° SSE
H-2A R/B 2.2 17:24:43 10° SSE 17:30:01 64° ENE 17:35:25 10° N
MOS 1-B 4.4 17:28:12 10° SSE 17:34:00 89° ENE 17:39:50 10° NNW
Cosmos 2366 rocket 4.1 17:29:38 10° S 17:35:50 85° W 17:42:07 10° N
Okean 1 Rocket 3.0 17:33:10 10° S 17:37:28 76° E 17:41:51 10° NNE
H-2A R/B 3.2 17:34:25 10° SE 17:38:19 33° ENE 17:42:06 10° N
CZ-4C R/B 3.9 17:35:48 10° NE 17:38:47 27° E 17:41:40 10° SSE
Cosmos 1470 3.7 17:36:16 10° SSW 17:40:10 54° WNW 17:44:06 10° N
Cosmos 1174 3.6 17:37:36 10° SSW 17:40:41 41° ESE 17:43:34 10° NE
SL-16 R/B 3.8 17:39:36 10° SE 17:42:17 14° E 17:44:59 10° ENE
SMAP 4.4 17:38:11 10° S 17:42:39 46° W 17:47:09 10° NNW
COSMO-SKYMED 1 2.8 17:39:40 10° NNE 17:43:54 48° E 17:48:06 10° S
Gbstr 26 Del rocket 4.4 17:37:20 10° WNW 17:44:16 86° NNE 17:52:18 10° ESE
Cosmos 2082 3.9 17:40:16 10° NNW 17:45:55 80° WSW 17:51:32 10° SSE
Cosmos 1703 3.5 17:42:48 10° N 17:46:38 46° ENE 17:50:24 10° SSE
Spot 2 4.4 17:43:24 10° SE 17:47:15 41° ENE 17:51:17 10° N
MOS 1-B Rocket 4.4 17:41:39 10° NNE 17:48:26 49° E 17:54:17 10° S
Cosmos 389 Rocket 2.3 17:48:18 10° S 17:51:41 73° E 17:55:06 10° NNE
CZ-4 R/B 4.4 17:50:52 10° SSE 17:54:58 67° ENE 17:59:06 10° N
Cosmos 1892 Rocket 3.6 17:50:54 10° N 17:55:22 62° ENE 17:59:45 10° SSE
SL-19 R/B 4.3 17:50:39 10° NNE 17:56:30 85° ESE 18:02:06 10° SSW
Cosmos 2298 Rocket 4.1 17:51:54 10° SSW 17:57:13 88° WNW 18:02:33 10° NNE
Cosmos 2322 Rocket 3.8 17:56:08 10° SE 17:58:05 13° ESE 17:58:05 13° ESE
Cosmos 1758 4.0 17:55:19 10° SSW 17:59:14 58° WNW 18:03:11 10° N
Cosmos 1269 Rocket 4.2 17:56:25 10° NNW 18:01:38 53° ENE 18:06:47 10° SE
deb Chang Zheng 4 4.4 17:58:33 10° S 18:02:40 54° W 18:06:49 10° NNW
Cosmos 1300 3.7 17:59:42 10° SE 18:02:48 24° E 18:05:54 10° NE
Cosmos 1000 Rocket 4.4 17:58:10 10° N 18:04:21 77° E 18:10:33 10° SSE
Iridium 4 Rocket 3.5 18:00:19 10° N 18:04:32 44° E 18:09:05 10° SSE
ATLAS 5 CENTAUR R/B 1.8 18:02:41 10° SSW 18:06:21 40° ESE 18:09:23 16° ENE
Cosmos 1328 4.1 18:03:31 10° N 18:07:24 44° ENE 18:11:16 10° SSE
SKYMED 3 4.5 18:03:34 10° NNE 18:07:57 84° E 18:12:18 10° SSW
Cosmos 1953 2.2 18:03:58 10° S 18:08:00 73° E 18:12:04 10° NNE
Cosmos 489 Rocket 4.4 18:01:53 10° NNW 18:08:05 67° ENE 18:14:15 10° SSE
CZ-4 R/B 1.5 18:04:43 10° SE 18:08:33 49° ENE 18:12:30 10° N
Landsat 5 3.5 18:04:52 10° NNE 18:09:12 80° ESE 18:13:40 10° SSW
Cosmos 405 Rocket 2.7 18:05:56 10° N 18:09:53 70° ENE 18:13:51 10° SSE
Cosmos 1125 Rocket 3.6 18:05:06 10° SSW 18:10:23 83° WNW 18:15:40 10° NNE
Meteor 1-21 Rocket 4.4 18:04:48 10° NNW 18:10:40 86° W 18:16:35 10° S
CZ-4B R/B 3.9 18:08:45 10° S 18:14:19 61° WSW 18:19:57 10° NNW
USA 215 3.9 18:13:07 12° ENE 18:18:59 50° NNW 18:25:16 10° W
Meteor 2-10 Rocket 4.5 18:15:45 10° SE 18:20:22 27° E 18:24:53 10° NNE
Cosmos 1821 Rocket 4.2 18:16:36 10° SSW 18:23:01 81° W 18:29:26 10° N
Cosmos 1626 Rocket 3.9 18:18:55 10° N 18:23:03 41° ENE 18:25:47 19° SE
OPS 6432 4.3 18:21:58 10° NW 18:24:55 73° SW 18:26:58 22° SSE
Cosmos 2227 4.2 18:19:44 10° NNW 18:25:32 72° ENE 18:31:02 11° SE
SL-08 RB Rocket 3.6 18:21:42 10° SSE 18:26:14 86° ENE 18:30:51 10° NNW
Cosmos 2369 4.0 18:20:51 10° SW 18:26:30 70° WNW 18:32:13 10° NNE
SKYMED 2 4.2 18:27:42 10° N 18:31:59 57° WNW 18:36:14 10° SSW
Cosmos 2263 Rocket 2.2 18:30:06 10° NNW 18:35:42 80° WSW 18:41:15 10° SSE
Cosmos 1980 Rocket 2.4 18:30:08 10° SSW 18:35:47 76° WNW 18:41:31 10° NNE
OBJECT-B 3.3 18:38:35 12° NNE 18:38:35 12° NNE 18:38:53 10° NNE
BREEZE-M DEB (TANK) 2.9 18:30:10 10° W 18:36:36 88° SSW 18:37:26 47° ESE
ARGOS 3.8 18:34:40 10° S 18:39:57 57° W 18:45:19 10° NNW
CSL-04 Debris 4.2 18:37:10 16° SE 18:41:20 58° ENE 18:46:39 10° N
YAOGAN 1 2.7 18:39:29 10° S 18:43:47 73° WSW 18:48:08 10° NNW
Lacrosse 4 Rocket 2.1 18:40:55 10° NNW 18:44:52 36° NE 18:45:01 35° NE
Cosmos 1934 Rocket 3.8 18:38:48 10° S 18:44:56 83° E 18:51:02 10° N
Okean O Rocket 3.5 18:41:53 10° SSW 18:45:46 32° W 18:49:42 10° NNW
Cosmos 1455 Rocket 3.6 18:43:20 10° SSW 18:47:42 62° WNW 18:52:08 10° N
X-37B 1.5 18:46:09 10° WSW 18:48:53 39° SSW 18:48:53 39° SSW
H-2A R/B 1.8 18:46:57 10° NNE 18:51:04 71° ESE 18:55:11 10° S
ATLAS 3B R/B 3.5 18:45:08 10° WSW 18:51:29 47° NW 18:58:10 10° NE
Cosmos 1892 4.1 18:48:19 10° N 18:50:11 24° NNE 18:50:11 24° NNE
Cosmos 1697 Rocket 4.2 18:48:45 10° WSW 18:53:53 35° NW 18:59:03 10° NNE
MetOp-A 4.0 18:49:28 15° SSE 18:53:56 75° ENE 18:59:18 10° NNW
DMSP B5D2-2 3.9 18:48:49 10° NNE 18:54:06 76° ESE 18:59:20 10° S
Cosmos 2123 Rocket 4.3 18:51:16 10° NNW 18:57:34 70° W 19:03:50 10° S
Okean-O 2.5 18:55:17 24° SSE 18:57:56 89° ENE 19:02:25 10° NNW
CZ-2C R/B 3.6 18:52:48 10° N 18:58:16 51° WNW 19:03:36 10° SW
CSL-04 Rocket 3.6 18:56:13 23° SSE 18:59:43 74° ENE 19:05:17 10° NNW
IRAS Rocket 4.5 18:54:57 10° NNE 19:00:32 71° WNW 19:06:01 10° SSW
Cosmos 1544 Rocket 3.7 18:56:45 10° SSW 19:01:12 76° W 19:05:42 10° N
Okean 1-7 Rocket 4.3 18:59:51 10° NNW 19:04:09 53° W 19:08:26 10° S
SJ-6B 4.4 19:09:39 24° N 19:09:39 24° N 19:11:20 10° N
Cosmos 2278 4.3 19:03:56 10° SW 19:09:31 57° WNW 19:15:10 10° NNE
NOSS 3-1 (C) 3.3 19:04:54 10° SSW 19:09:59 52° ESE 19:09:59 52° ESE
Resurs 01 Rocket 3.9 19:13:25 13° NNE 19:13:25 13° NNE 19:14:01 10° NNE
Cosmos 1844 Rocket 2.9 19:05:25 10° NNW 19:10:50 49° NE 19:11:03 48° ENE
Cosmos 371 Rocket 3.2 19:06:45 10° SSW 19:11:38 86° ESE 19:14:22 27° NNE
H-2A R/B 4.5 19:09:56 10° SSW 19:13:45 29° W 19:17:30 10° NW
CENTAUR R/B 4.3 19:09:27 10° NW 19:15:28 27° N 19:19:24 19° NE
Cosmos 839 Rocket 4.2 19:08:44 10° NW 19:16:43 89° SW 19:19:23 40° SE
Cosmos 2278 Rocket 4.1 19:14:54 10° N 19:18:00 16° NNE 19:18:00 16° NNE
Cosmos 1602 Rocket 3.7 19:19:09 10° NNW 19:23:31 69° W 19:23:52 65° SW
SL-16 R/B 2.0 19:19:47 10° SSW 19:25:27 80° ESE 19:26:59 50° NE
Orbus 7S? 3.9 19:27:08 10° NW 19:35:23 87° W 19:35:23 87° W
Cosmos 614 Rocket 4.0 19:35:26 10° NNW 19:40:04 72° NW 19:40:04 72° NW
Cosmos 2322 Rocket 2.8 19:36:22 10° SSW 19:40:03 43° SSW 19:40:03 43° SSW
Cosmos 1844 3.9 19:37:55 10° NNW 19:43:04 64° NNE 19:43:04 64° NNE
CZ-4 R/B 4.2 19:41:10 10° SW 19:43:50 17° W 19:46:34 10° NW
BREEZE-M DEB (TANK) 4.2 19:39:08 10° W 19:48:26 75° WNW 19:48:26 75° WNW
ATLAS 5 CENTAUR R/B 3.0 19:47:17 10° W 19:50:56 33° NW 19:50:56 33° NW
Cosmos 2344 4.3 19:42:46 10° NW 19:51:50 81° SW 19:56:48 42° SSE
Cosmos 2251 Rocket 4.0 19:54:13 10° NNW 19:58:45 56° WNW 19:58:45 56° WNW
USA 215 3.9 20:00:29 43° NNE 20:01:20 45° N 20:07:28 10° WNW
Meteor 2-10 Rocket 4.4 19:56:41 10° SSW 20:02:09 50° WNW 20:07:27 10° N
Ariane Rocket 4.4 20:06:59 32° N 20:06:59 32° N 20:09:39 10° NNW
BREEZE M DEB (TANK) 4.2 19:48:38 10° WSW 20:13:08 88° N 20:14:16 71° ENE
Lacrosse 4 Rocket 3.9 20:19:39 10° NW 20:21:19 20° WNW 20:21:19 20° WNW
ATLAS 3B R/B 4.4 20:38:29 10° WNW 20:43:56 25° N 20:45:56 22° NNE
Cosmos 2278 Rocket 4.3 20:58:04 10° NNW 20:59:50 20° NNW 20:59:50 20° NNW
CENTAUR R/B 4.0 21:00:54 10° NW 21:06:34 40° N 21:06:34 40° N
SL-16 R/B 4.3 21:05:43 10° W 21:09:00 22° WNW 21:09:00 22° WNW
